Temp
10 11 10 10 10 10 10 9 9 9 9 9 9 9 10 10 11 11 12 13 13 13 13 13 14 14 15 15 18 17 18 18 17 17 17 17 17 17 16 16 16 15 16 17 17 17 17
10 10 11 11 10 11 10 10 10 9 9 9 9 9 9 10 10 10 12 12 12 13 13 13 13 13 14 13 17 17 18 17 17 18 18 17 18 17 17 16 16 18 17 16 16 16 17
7 8 10 10 11 11 11 11 11 10 10 9 9 9 9 9 10 10 11 12 12 12 13 13 13 13 13 17 18 17 18 17 18 18 18 18 17 17 18 17 18 17 17 16 15 16 17
4 6 7 8 10 11 11 11 11 11 10 10 9 9 9 9 9 10 10 11 12 12 13 13 13 12 14 18 18 18 18 18 18 18 18 18 17 17 17 18 17 17 16 16 15 16 16
3 3 4 6 5 7 10 10 11 11 11 11 10 9 9 8 9 9 10 11 12 12 13 13 13 12 15 17 18 18 18 18 18 18 18 18 17 18 17 15 14 13 15 17 16 16 16
2 3 3 3 3 5 5 6 10 11 11 11 11 10 8 7 7 9 9 11 12 13 13 13 11 12 16 17 17 18 18 18 18 18 18 18 17 13 12 13 14 16 16 16 17 17 16
1 2 3 3 2 3 3 4 4 6 11 11 11 11 9 7 8 9 9 11 12 11 11 14 14 15 16 17 17 18 18 19 18 18 15 16 13 13 14 15 16 17 16 15 15 17 16
0 0 2 3 3 2 3 3 3 3 5 9 10 11 9 6 8 8 8 10 10 10 9 14 14 13 15 15 15 18 18 18 17 15 15 14 14 14 15 15 16 16 17 16 16 16 15
1 1 1 2 2 3 2 2 3 3 3 4 8 10 8 6 7 8 8 10 10 10 8 12 14 14 16 16 16 17 18 18 16 15 14 14 16 16 17 17 18 16 16 15 16 17 14
2 1 1 1 1 2 3 2 2 2 3 3 5 8 7 6 7 8 9 10 10 11 9 12 12 14 15 17 16 19 18 19 16 15 13 14 16 17 18 18 17 16 16 15 17 15 14
1 2 1 1 1 2 2 3 2 2 2 2 3 7 6 6 7 9 9 9 10 10 8 14 13 15 16 17 18 18 19 19 15 15 15 16 17 17 17 17 17 16 17 16 17 15 15
2 1 2 1 1 1 2 3 2 2 2 2 2 4 5 5 6 9 10 9 9 9 9 14 15 14 14 16 18 17 18 19 18 16 15 15 17 17 16 17 17 17 17 14 12 12 12
2 1 1 2 1 1 1 2 2 2 1 2 2 2 4 5 6 8 8 9 9 8 13 15 14 14 14 14 16 16 15 15 14 14 15 16 16 16 17 18 16 16 14 13 13 11 12
2 2 1 1 2 1 1 2 2 2 2 1 1 2 3 4 5 6 8 8 8 11 12 14 15 14 14 15 15 15 14 13 15 14 12 14 14 16 17 17 16 16 14 11 15 11 13
2 1 1 1 1 1 1 1 2 2 2 2 1 2 2 4 5 6 7 7 9 10 13 14 15 14 14 15 15 15 13 13 14 14 15 13 14 15 16 16 16 15 14 13 10 8 10
2 2 1 1 1 1 1 1 2 1 1 1 1 1 2 4 5 6 7 8 11 12 14 14 14 14 12 13 15 14 12 14 15 14 15 15 16 15 16 16 16 16 13 13 10 14 13
2 1 1 1 1 1 1 1 1 1 1 1 1 2 3 4 5 5 7 8 10 13 14 13 13 14 13 13 13 12 13 16 14 14 14 13 14 14 15 14 15 14 14 12 12 9 11
1 1 1 1 1 1 1 1 1 1 1 1 1 2 4 4 5 6 7 8 11 12 13 12 13 12 14 13 13 13 14 15 16 14 14 13 12 10 14 15 15 15 14 12 9 13 7
-0 1 1 1 1 1 1 1 1 1 1 0 1 3 4 5 5 6 8 9 9 11 12 11 12 12 14 14 15 13 13 16 15 14 13 13 12 10 12 14 14 15 13 13 10 7 9
1 1 1 1 1 1 1 0 1 0 0 0 1 2 4 4 7 7 7 8 8 11 11 12 11 12 14 14 12 14 13 14 14 15 15 15 11 12 13 13 13 14 14 12 12 8 9
1 1 1 2 1 1 1 0 1 0 0 0 1 2 6 5 5 6 8 8 8 9 11 11 10 11 12 13 14 13 13 13 13 13 13 13 13 11 13 14 14 15 16 11 12 12 12
0 1 1 1 1 1 1 0 1 0 0 0 1 4 6 7 6 6 7 8 8 9 10 10 10 11 10 11 12 14 13 12 13 12 12 11 12 12 13 13 14 14 13 13 12 13 12
-0 0 1 1 1 1 0 1 1 0 -0 0 0 3 4 7 6 6 7 8 8 10 10 11 11 11 10 12 14 14 15 13 12 11 10 10 8 9 12 10 12 10 11 12 12 12 13
-0 -0 1 1 1 1 0 -0 0 0 -0 0 2 2 3 5 6 6 7 8 8 9 10 11 11 10 12 14 14 13 12 10 11 9 10 7 8 6 7 7 9 13 12 13 12 11 11
-0 -0 0 1 1 1 -0 0 -0 0 0 1 1 1 2 4 6 7 7 7 8 9 9 10 11 12 13 13 10 11 7 11 10 8 8 8 6 6 8 7 10 13 12 11 12 12 10
0 0 1 0 1 0 -0 0 -0 -0 -0 1 1 1 2 3 5 8 8 8 7 7 8 9 11 11 11 8 6 9 9 10 9 11 8 7 5 7 4 8 9 10 12 13 12 10 10
0 1 1 1 0 0 0 -0 -0 -0 -0 -0 0 1 1 1 3 6 7 7 8 8 6 8 10 10 11 3 5 7 8 10 9 10 8 5 3 6 1 5 7 9 12 14 11 11 11
1 1 0 0 -0 0 -0 -0 -0 -1 -1 -1 -0 1 0 2 3 4 7 8 8 8 7 8 9 8 4 7 6 6 5 7 7 9 8 9 6 4 3 4 9 11 11 11 10 13 13
1 1 0 -0 -0 -0 -0 -0 -1 -1 -1 -1 -1 -1 0 1 3 3 5 6 7 9 9 10 10 9 10 7 4 3 5 2 7 8 8 10 8 7 8 8 10 11 12 15 15 14 13
Height
1520 1520 1520 1520 1520 1520 1520 1521 1523 1523 1524 1524 1524 1524 1524 1523 1522 1521 1518 1517 1515 1513 1510 1508 1506 1504 1503 1502 1498 1498 1496 1495 1495 1496 1499 1500 1502 1501 1501 1500 1499 1498 1492 1492 1492 1494 1494
1514 1514 1515 1516 1516 1516 1516 1516 1517 1519 1520 1520 1520 1520 1521 1521 1519 1518 1516 1515 1513 1511 1508 1507 1504 1503 1503 1503 1497 1497 1496 1495 1496 1497 1499 1500 1501 1501 1499 1498 1498 1493 1491 1492 1492 1493 1493
1507 1508 1509 1511 1511 1512 1512 1512 1512 1513 1514 1515 1516 1516 1517 1517 1516 1515 1513 1513 1511 1509 1507 1505 1502 1501 1501 1496 1496 1495 1495 1495 1496 1497 1499 1500 1500 1501 1498 1496 1494 1492 1492 1493 1493 1493 1494
1500 1501 1502 1503 1504 1507 1508 1508 1510 1510 1510 1510 1511 1512 1513 1514 1514 1513 1511 1509 1508 1506 1504 1502 1500 1499 1495 1492 1493 1494 1494 1494 1495 1496 1498 1499 1500 1498 1497 1495 1494 1494 1494 1500 1495 1492 1495
1493 1494 1494 1496 1497 1498 1501 1503 1504 1507 1507 1507 1507 1508 1508 1510 1510 1510 1508 1506 1504 1502 1500 1499 1498 1497 1491 1489 1490 1493 1493 1494 1494 1496 1498 1498 1499 1498 1496 1498 1504 1503 1508 1500 1499 1490 1491
1484 1485 1487 1488 1490 1491 1494 1495 1497 1500 1504 1505 1504 1505 1505 1504 1507 1507 1506 1503 1501 1498 1496 1495 1494 1499 1489 1487 1488 1490 1490 1492 1493 1494 1497 1497 1497 1500 1501 1505 1516 1507 1505 1502 1501 1494 1493
1474 1477 1479 1481 1482 1485 1487 1489 1490 1493 1496 1500 1501 1500 1503 1503 1502 1504 1506 1502 1501 1498 1491 1489 1490 1486 1485 1486 1486 1488 1488 1490 1492 1494 1498 1498 1503 1507 1500 1498 1499 1499 1502 1505 1500 1491 1494
1464 1466 1469 1473 1475 1477 1480 1482 1484 1488 1488 1492 1496 1498 1499 1501 1501 1500 1504 1502 1500 1499 1491 1484 1483 1483 1482 1484 1487 1485 1486 1489 1491 1496 1496 1502 1505 1494 1493 1495 1496 1497 1498 1501 1492 1491 1494
1455 1457 1458 1463 1466 1469 1471 1475 1477 1481 1484 1486 1490 1493 1496 1499 1499 1499 1502 1502 1497 1496 1495 1477 1473 1473 1476 1480 1482 1481 1483 1484 1487 1494 1496 1502 1495 1491 1488 1493 1493 1494 1497 1499 1499 1493 1496
1443 1447 1449 1451 1456 1461 1463 1467 1471 1475 1477 1481 1484 1488 1492 1496 1501 1497 1499 1499 1496 1494 1497 1476 1469 1465 1468 1475 1478 1478 1479 1482 1485 1490 1496 1498 1490 1489 1487 1490 1492 1500 1491 1494 1493 1499 1512
1430 1435 1438 1442 1445 1449 1455 1457 1463 1467 1471 1476 1478 1483 1488 1493 1493 1497 1499 1499 1494 1496 1515 1465 1463 1463 1463 1467 1469 1471 1476 1479 1484 1487 1492 1494 1490 1490 1490 1488 1487 1494 1488 1490 1489 1499 1504
1417 1420 1425 1429 1435 1439 1443 1449 1452 1460 1464 1469 1474 1478 1485 1488 1489 1495 1496 1499 1497 1503 1502 1461 1458 1461 1465 1464 1466 1469 1474 1477 1478 1484 1487 1489 1487 1487 1487 1484 1483 1484 1489 1495 1501 1505 1522
1401 1406 1411 1416 1422 1431 1433 1438 1446 1450 1457 1463 1468 1473 1479 1481 1486 1491 1494 1498 1503 1500 1464 1456 1457 1458 1460 1464 1466 1466 1473 1477 1483 1494 1494 1489 1488 1484 1484 1486 1485 1488 1497 1518 1518 1527 1525
1386 1390 1396 1403 1409 1418 1424 1428 1438 1441 1449 1457 1461 1469 1471 1475 1485 1488 1492 1499 1496 1475 1466 1453 1452 1456 1460 1461 1465 1466 1472 1479 1476 1480 1497 1499 1505 1486 1480 1484 1489 1489 1494 1521 1517 1536 1519
1370 1375 1381 1388 1397 1406 1412 1419 1429 1433 1442 1451 1458 1461 1464 1468 1478 1485 1489 1489 1473 1470 1459 1457 1451 1457 1460 1458 1460 1465 1473 1476 1472 1473 1488 1498 1495 1481 1481 1481 1485 1491 1498 1495 1520 1531 1529
1353 1359 1366 1374 1382 1393 1401 1409 1417 1427 1435 1445 1450 1455 1455 1464 1473 1481 1480 1467 1461 1456 1455 1454 1457 1451 1462 1461 1460 1464 1473 1464 1467 1466 1467 1479 1489 1482 1481 1482 1483 1484 1489 1505 1515 1515 1520
1336 1343 1351 1358 1367 1378 1388 1399 1408 1418 1428 1438 1447 1451 1443 1458 1468 1473 1461 1456 1460 1453 1455 1457 1455 1451 1452 1455 1456 1463 1464 1459 1458 1465 1467 1475 1483 1489 1483 1486 1486 1490 1492 1498 1503 1515 1521
1318 1326 1334 1344 1352 1364 1375 1387 1398 1409 1421 1431 1437 1438 1437 1450 1457 1456 1447 1451 1454 1453 1453 1455 1453 1451 1449 1449 1454 1457 1459 1454 1451 1455 1469 1469 1481 1501 1484 1475 1474 1477 1485 1491 1513 1507 1525
1303 1311 1318 1328 1338 1348 1362 1374 1387 1398 1410 1420 1428 1432 1436 1441 1440 1437 1442 1445 1450 1451 1450 1452 1452 1447 1446 1446 1452 1450 1452 1445 1448 1452 1461 1466 1482 1502 1492 1484 1479 1478 1479 1483 1494 1505 1511
1287 1297 1305 1313 1324 1334 1348 1362 1375 1388 1400 1413 1424 1426 1428 1432 1421 1426 1434 1437 1444 1445 1447 1447 1447 1447 1447 1446 1447 1446 1448 1446 1446 1447 1448 1454 1474 1478 1487 1481 1475 1478 1475 1481 1485 1508 1501
1271 1281 1290 1299 1311 1321 1336 1349 1363 1377 1388 1404 1410 1409 1405 1405 1416 1416 1423 1424 1436 1438 1440 1442 1445 1446 1446 1450 1447 1446 1444 1445 1446 1447 1450 1454 1469 1473 1468 1465 1467 1467 1466 1478 1480 1479 1489
1254 1265 1276 1288 1299 1309 1325 1340 1349 1365 1382 1393 1397 1399 1399 1396 1409 1418 1417 1413 1420 1429 1432 1435 1439 1440 1445 1448 1446 1444 1445 1444 1443 1448 1449 1453 1466 1466 1468 1468 1466 1466 1466 1469 1471 1472 1476
1237 1250 1263 1277 1290 1298 1315 1331 1342 1357 1373 1379 1391 1392 1394 1392 1400 1411 1391 1404 1416 1427 1430 1428 1432 1438 1441 1439 1436 1440 1441 1440 1442 1441 1446 1452 1466 1476 1475 1477 1473 1485 1471 1466 1465 1463 1463
1225 1238 1252 1267 1281 1289 1308 1324 1338 1349 1356 1368 1377 1384 1390 1387 1391 1382 1401 1409 1411 1414 1423 1428 1430 1434 1436 1439 1439 1439 1439 1438 1437 1441 1438 1453 1460 1474 1488 1486 1495 1457 1452 1453 1458 1457 1456
1216 1231 1245 1259 1273 1283 1303 1318 1332 1346 1356 1364 1375 1384 1389 1389 1386 1391 1396 1403 1414 1417 1419 1421 1427 1431 1435 1437 1443 1445 1452 1442 1443 1444 1443 1441 1456 1477 1481 1486 1470 1453 1454 1454 1455 1454 1450
1213 1225 1240 1253 1263 1281 1300 1315 1328 1342 1354 1369 1375 1382 1385 1385 1381 1389 1393 1400 1407 1413 1422 1420 1426 1428 1436 1438 1448 1446 1449 1443 1450 1444 1444 1444 1448 1461 1487 1482 1481 1455 1440 1441 1442 1460 1444
1212 1223 1234 1248 1265 1282 1299 1313 1327 1340 1353 1365 1375 1381 1387 1388 1383 1383 1384 1391 1402 1408 1413 1420 1423 1427 1432 1444 1449 1447 1443 1435 1444 1443 1452 1459 1467 1471 1493 1484 1465 1442 1438 1440 1459 1451 1435
1213 1222 1236 1253 1269 1285 1299 1313 1327 1340 1351 1359 1370 1380 1384 1386 1378 1382 1384 1386 1393 1397 1402 1411 1426 1423 1431 1436 1440 1437 1445 1436 1436 1433 1436 1441 1460 1474 1482 1484 1465 1433 1440 1447 1433 1428 1429
1218 1231 1245 1260 1275 1289 1302 1316 1328 1339 1350 1360 1370 1373 1381 1388 1382 1379 1380 1381 1384 1389 1399 1403 1400 1404 1413 1424 1430 1431 1435 1440 1430 1438 1430 1435 1431 1444 1446 1445 1428 1429 1428 1428 1426 1424 1429
Wind_Speed
28 27 25 24 24 24 25 28 30 27 24 21 21 22 21 19 18 18 17 16 16 17 18 19 19 16 14 7 3 3 5 3 2 8 8 6 1 1 1 3 3 4 4 4 7 8 5
32 31 30 28 26 25 24 24 23 27 27 25 23 20 22 22 20 19 18 17 17 18 18 19 17 16 12 5 4 2 3 2 4 9 8 4 2 6 5 4 3 4 5 3 5 8 5
34 33 33 32 30 28 27 25 23 20 23 27 25 23 22 21 20 19 18 17 17 18 18 18 17 15 16 15 7 7 2 1 5 6 4 2 5 6 6 4 5 4 3 3 3 5 3
35 36 35 33 33 33 30 28 26 23 20 21 25 23 21 20 20 19 18 17 17 18 18 18 16 14 10 5 13 10 6 2 6 6 6 4 7 9 3 6 5 2 3 2 4 1 4
33 37 36 37 32 32 33 32 28 27 24 21 21 22 19 17 20 18 17 18 18 19 19 17 14 7 10 6 11 10 9 5 4 3 6 5 7 3 3 3 4 6 1 3 2 8 4
37 35 38 36 36 34 31 30 32 28 26 24 21 20 20 13 18 18 17 18 17 17 16 12 13 7 10 3 5 7 8 12 6 3 5 2 0 2 3 5 1 1 3 3 2 3 3
38 43 36 38 37 35 32 31 27 28 28 25 24 20 20 14 14 17 17 13 10 8 6 8 2 6 9 3 7 9 8 12 9 0 1 3 4 4 7 5 3 2 1 3 4 5 6
38 40 44 38 38 38 35 31 28 27 25 27 25 23 19 14 14 15 14 11 7 6 11 15 20 28 26 24 7 8 11 9 6 5 2 5 3 7 4 4 5 3 2 6 4 4 6
42 37 39 49 43 38 38 37 31 28 23 23 23 23 19 13 14 15 13 12 11 9 6 12 19 19 24 17 9 11 17 11 4 5 4 4 4 2 4 4 1 4 3 5 5 3 4
48 45 40 38 51 46 39 38 36 31 26 23 23 22 18 12 14 16 14 8 13 6 3 6 6 8 16 11 5 16 17 11 2 8 7 4 5 4 1 2 3 3 3 4 4 3 3
53 51 47 41 37 52 44 40 36 34 29 26 23 22 20 17 9 5 5 4 7 6 2 2 4 4 16 20 9 15 14 11 8 6 6 6 3 4 3 4 4 8 4 1 1 4 3
56 53 50 47 41 41 50 41 39 36 31 26 23 22 22 21 25 12 10 3 2 4 8 3 8 7 6 9 4 9 13 9 5 5 2 5 3 3 5 4 5 1 2 5 4 3 2
57 55 52 48 44 44 47 50 40 38 34 29 23 21 28 22 23 20 12 3 3 5 3 4 5 6 6 6 5 5 6 6 6 4 2 1 3 3 1 1 3 3 5 3 4 4 4
57 56 54 50 46 45 44 51 49 41 35 32 27 23 30 28 26 17 11 3 11 5 7 4 1 4 9 5 7 5 7 6 1 5 3 6 5 6 3 5 7 2 6 5 2 1 3
56 57 55 52 49 47 43 43 51 41 37 34 27 26 32 35 27 23 12 9 8 6 4 3 1 4 4 5 6 5 8 8 8 7 7 5 5 2 1 1 1 3 2 5 6 3 2
56 56 56 54 53 47 45 43 49 51 38 33 30 30 37 36 31 27 7 18 10 6 2 2 6 5 9 7 6 11 9 6 7 10 6 7 2 2 1 1 1 2 7 3 3 2 3
54 54 55 55 52 50 45 43 47 53 41 31 29 17 20 38 32 17 13 15 19 16 2 2 2 3 7 7 9 6 10 3 8 6 6 5 4 4 2 6 8 2 1 5 5 4 4
46 52 52 55 54 54 48 45 46 51 42 36 30 8 19 43 18 20 17 9 23 24 10 5 3 3 4 6 6 8 10 10 17 13 9 7 6 4 9 3 2 4 7 6 4 4 1
46 47 48 53 57 58 51 47 44 47 49 44 21 12 26 50 15 16 16 20 8 15 15 7 6 6 2 2 3 6 7 7 16 8 9 8 1 1 7 4 2 4 5 4 5 3 6
50 51 50 48 55 60 54 50 46 52 57 43 18 6 16 36 45 20 22 18 24 15 6 11 3 2 1 3 4 4 7 4 15 12 10 14 4 8 9 8 5 4 6 5 5 4 4
51 52 51 51 55 63 55 49 52 63 54 46 24 8 16 15 23 21 21 14 22 18 18 15 4 6 5 4 3 4 2 3 3 7 5 7 8 5 5 4 5 5 5 9 7 5 6
54 53 53 50 52 63 58 50 52 64 59 42 12 9 19 6 29 24 18 24 25 26 10 15 5 10 7 4 6 3 2 4 6 4 5 1 5 5 4 1 1 4 6 6 5 4 5
51 53 53 50 52 64 59 59 64 66 62 31 31 20 11 20 20 19 29 21 21 17 25 13 21 10 4 17 27 18 14 10 4 6 8 8 7 4 5 2 4 6 7 8 5 5 7
48 50 53 53 57 67 60 60 60 60 63 32 45 17 8 6 13 23 20 21 23 22 10 27 15 9 14 13 4 6 8 7 9 6 3 7 7 3 3 3 2 7 1 4 9 7 5
46 46 48 49 67 66 61 63 63 64 56 43 26 24 5 8 12 12 18 28 15 25 18 9 30 14 6 9 3 1 4 3 2 6 4 2 6 3 5 4 5 4 5 8 8 9 7
42 44 47 49 72 64 58 63 64 60 56 51 34 41 14 4 7 22 16 22 18 11 7 12 34 22 8 3 2 6 6 6 4 2 4 6 7 4 3 5 8 8 5 7 4 4 8
37 40 52 69 64 56 54 57 56 54 57 53 42 35 8 2 6 17 15 17 23 18 2 7 20 8 15 2 2 3 4 4 7 10 6 4 4 5 2 3 7 7 4 11 5 8 18
31 56 65 62 55 52 52 52 54 54 58 59 52 33 14 4 19 4 14 20 21 35 12 8 9 9 3 6 4 4 3 6 4 5 7 7 7 4 3 3 7 11 6 9 8 5 28
58 58 57 48 49 50 50 50 48 54 52 57 40 44 11 13 7 12 12 14 27 30 32 25 10 10 14 4 1 3 1 1 4 4 1 3 7 6 9 7 5 14 5 15 10 15 26
Wind_Direction
266 264 262 261 261 261 260 259 260 262 263 265 271 277 280 290 300 309 312 309 312 314 320 325 327 329 332 309 251 318 359 16 140 152 151 151 169 250 222 223 254 206 264 275 233 162 109
264 264 264 262 261 261 261 261 262 258 261 263 267 271 279 284 290 300 308 309 309 310 316 321 323 324 321 283 210 245 25 77 121 142 169 173 320 318 273 247 195 245 288 335 136 167 162
266 263 262 264 265 263 262 263 260 259 259 260 261 265 271 281 286 292 303 310 306 306 312 316 317 318 301 262 219 223 251 46 119 152 185 283 331 320 307 300 312 291 4 27 2 166 133
267 265 263 260 259 263 265 263 267 260 257 260 256 260 269 277 284 290 301 307 302 302 305 308 307 311 270 244 214 214 246 220 153 180 229 287 318 302 256 309 343 149 52 9 303 276 103
268 267 263 262 261 259 260 264 263 267 263 258 255 254 256 268 279 286 300 306 301 299 294 293 293 297 266 237 222 229 240 215 183 234 267 293 299 297 329 57 5 5 301 346 73 255 101
255 259 266 262 261 257 258 258 259 259 263 264 261 262 258 253 275 283 298 307 302 294 283 279 265 290 253 175 183 226 223 223 213 290 288 245 225 44 10 65 251 318 32 2 137 253 47
264 251 256 263 261 261 259 257 259 256 254 257 258 255 259 255 271 283 300 320 305 275 252 230 215 240 283 236 264 232 215 197 198 197 232 28 69 223 226 171 180 273 236 240 244 222 163
267 263 249 251 255 259 259 257 257 262 256 247 249 255 246 246 267 271 294 300 278 302 306 271 260 257 255 267 286 225 201 168 156 186 146 21 239 221 200 186 171 193 12 317 302 19 185
269 268 260 246 248 251 257 256 255 255 256 255 240 238 238 245 263 266 277 284 265 295 273 284 247 242 238 230 222 228 185 177 143 150 173 161 257 203 158 202 35 334 342 293 220 33 52
267 265 263 258 248 247 250 253 251 252 250 247 244 230 221 231 267 269 268 254 266 230 311 264 224 235 187 181 229 216 199 176 147 192 153 226 256 244 219 134 123 306 193 263 243 107 203
265 262 262 260 259 242 241 245 249 243 248 244 242 225 206 205 216 223 170 271 130 143 339 216 189 184 176 165 157 201 200 186 160 165 119 244 212 199 232 214 153 240 48 329 57 104 112
261 261 260 256 255 250 239 237 241 242 237 242 239 224 201 207 224 206 175 351 232 63 244 306 160 156 156 190 184 142 182 197 186 125 157 228 273 209 217 198 177 315 141 50 45 88 62
258 258 256 252 252 248 242 236 236 236 233 230 231 224 201 216 226 212 215 286 240 207 319 222 186 165 176 169 190 141 159 157 150 124 219 358 237 281 208 170 34 112 61 354 356 12 224
254 254 254 251 247 244 243 238 235 232 231 225 220 222 206 208 216 218 225 200 229 217 234 321 224 125 177 145 222 159 133 169 242 104 122 173 304 187 183 212 181 179 140 146 241 210 278
254 250 249 249 245 241 239 239 227 227 226 220 216 214 215 208 200 210 190 219 207 207 218 243 61 131 210 214 153 138 182 183 182 165 161 149 265 266 166 19 127 192 116 159 106 14 52
250 249 246 244 240 237 234 234 225 227 215 215 211 216 222 200 195 202 205 224 208 209 293 359 203 182 182 199 157 181 177 200 199 184 157 201 156 204 229 57 245 203 157 92 20 168 251
245 244 242 240 236 233 230 229 225 223 208 201 201 210 230 190 189 201 211 212 221 241 230 327 294 294 215 169 182 179 194 235 191 182 124 134 130 254 161 195 190 138 186 58 116 136 180
244 243 238 238 234 229 224 224 222 219 204 189 198 205 194 180 186 206 220 184 225 229 239 256 294 236 237 187 170 180 192 198 186 149 156 197 150 194 213 292 115 150 188 147 135 205 128
244 243 238 233 229 224 221 218 214 210 204 185 198 200 188 180 190 207 213 215 243 226 223 203 226 222 359 257 202 181 202 232 168 142 159 178 191 61 330 8 339 208 188 127 104 88 191
239 237 237 232 227 220 217 212 213 204 198 186 180 178 179 192 208 203 195 208 209 227 238 205 217 246 204 310 241 236 201 193 191 188 188 141 142 170 212 214 164 183 176 166 140 129 182
234 233 230 228 224 215 214 211 205 197 200 186 184 204 191 191 207 210 196 191 196 213 209 188 197 213 166 212 274 200 174 117 70 154 120 135 194 180 239 203 184 204 178 164 185 194 165
230 227 224 221 219 211 209 199 192 193 188 188 164 201 202 202 205 202 209 205 196 203 187 208 180 188 205 196 208 162 191 188 182 211 141 193 184 163 178 169 163 225 236 199 213 178 236
223 220 216 215 211 201 201 193 184 181 180 183 198 195 201 213 184 198 211 201 199 190 227 199 211 220 191 225 246 266 255 263 235 182 169 147 134 121 228 23 46 323 222 213 209 203 179
216 210 209 209 203 196 194 189 191 184 184 184 195 180 212 198 193 208 190 208 197 203 204 209 211 200 223 259 149 95 78 90 99 35 86 137 116 106 172 45 244 248 235 206 214 239 226
207 206 204 204 192 192 187 188 194 185 182 187 191 194 206 215 209 207 199 199 194 208 221 216 217 232 242 185 82 75 330 24 35 34 25 120 123 109 146 189 294 282 206 177 179 256 194
194 197 199 195 182 187 184 188 193 200 202 201 206 207 233 330 216 198 197 188 196 199 216 220 234 244 286 126 128 172 197 175 203 85 45 67 65 121 135 161 214 226 230 175 105 271 181
184 190 184 178 182 180 184 189 192 196 196 197 196 196 197 238 273 197 190 190 190 195 190 179 189 224 221 197 148 174 234 189 164 159 167 68 29 151 110 210 287 250 215 146 130 238 174
185 169 170 175 175 177 180 183 189 194 195 196 199 197 202 252 256 298 204 175 180 194 193 152 167 222 61 183 172 195 155 221 116 169 173 154 144 181 93 69 279 181 126 172 215 199 180
160 168 171 168 169 172 176 179 186 189 189 196 202 219 183 262 274 239 255 193 198 203 193 186 190 154 184 163 159 114 178 106 150 205 70 194 177 177 177 208 223 195 214 218 222 182 181